GW6416 Weather Reports


time (UTC)temp
F
wind
direction
speed
knots
gust
knots
rain 1hr
in
rain 24hr
in
rain mn
in
humidity
%
barometer
mb
20260507061008 57 352 0.9 6.1 0.04 0.14 0.04 90 1009.6
20260507060504 57 38 1.7 10.4 0.04 0.14 0.04 89 1009.7
20260507060022 57 340 3.5 10.4 0.03 0.13 0.03 88 1009.3
20260507055508 58 40 3.5 8.7 0.03 0.13 0.03 87 1009.3
20260507055008 58 285 1.7 8.7 0.02 0.12 0.02 86 1009.4
20260507054526 59 333 2.6 7.8 0.01 0.11 0.01 84 1009.4
20260507054009 59 52 3.5 7.8 0.01 0.11 0.01 83 1009.3
20260507053509 59 79 1.7 4.3 0.00 0.10 0.00 83 1009.7
20260507053028 59 310 1.7 4.3 0.00 0.10 0.00 82 1010.3
20260507052511 60 360 1.7 4.3 0.00 0.10 0.00 82 1010.0
20260507052012 60 38 1.7 8.7 0.00 0.10 0.00 82 1009.7
20260507051518 60 334 0.9 11.3 0.00 0.10 0.00 81 1009.9
20260507051007 60 19 1.7 13.0 0.00 0.10 0.00 79 1009.6
20260507050507 61 12 2.6 13.0 0.00 0.10 0.00 77 1009.4
20260507050025 62 328 2.6 7.8 0.00 0.10 0.00 77 1009.4
20260507045512 62 343 3.5 7.8 0.00 0.10 0.00 79 1009.3
20260507045010 62 26 2.6 8.7 0.00 0.10 0.00 80 1009.4
20260507044524 62 325 1.7 8.7 0.00 0.10 0.00 80 1009.0
20260507044009 62 344 2.6 5.2 0.00 0.10 0.00 79 1009.0
20260507043510 63 338 1.7 5.2 0.00 0.10 0.00 80 1009.0
20260507043028 63 24 1.7 5.2 0.00 0.10 0.00 80 1008.9
20260507042510 63 298 1.7 4.3 0.00 0.10 0.00 81 1008.7
20260507042008 63 335 0.9 4.3 0.00 0.10 0.00 83 1008.6
20260507041542 63 34 0.9 3.5 0.00 0.10 0.00 85 1008.6
20260507041012 64 342 0.9 3.5 0.00 0.10 0.00 85 1008.8
20260507040510 64 320 1.7 7.0 0.00 0.10 0.00 84 1008.9
20260507040020 64 327 1.7 7.0 0.00 0.10 0.00 84 1008.9
20260507035508 64 323 0.9 7.0 0.00 0.10 0.10 83 1008.9
20260507035010 65 5 1.7 7.0 0.00 0.10 0.10 82 1009.0
20260507034526 65 19 2.6 7.0 0.00 0.10 0.10 82 1009.1
20260507034007 65 290 1.7 7.0 0.00 0.10 0.10 83 1009.0
20260507033509 65 294 0.9 4.3 0.00 0.10 0.10 85 1008.9
20260507033031 65 346 1.7 4.3 0.00 0.10 0.10 85 1008.6
20260507032506 65 11 0.0 1.7 0.00 0.10 0.10 86 1008.7
20260507032013 65 22 0.0 2.6 0.00 0.10 0.10 86 1008.7
20260507031526 65 5 0.0 6.1 0.00 0.10 0.10 86 1008.6
20260507031009 64 342 0.0 6.1 0.00 0.10 0.10 88 1008.6
20260507030511 63 317 0.9 2.6 0.00 0.10 0.10 89 1008.8
20260507030030 63 17 0.0 0.0 0.00 0.10 0.10 89 1008.7
20260507025510 63 153 0.0 0.0 0.00 0.10 0.10 89 1008.3
20260507025004 63 153 0.0 0.0 0.00 0.10 0.10 88 1008.1
20260507024521 63 153 0.0 0.0 0.00 0.10 0.10 87 1008.0
20260507024014 64 153 0.0 0.0 0.00 0.10 0.10 87 1008.1
20260507023508 63 153 0.0 1.7 0.00 0.10 0.10 87 1008.1
20260507023003 64 153 0.0 1.7 0.00 0.10 0.10 87 1008.0
20260507022503 64 199 0.0 0.9 0.00 0.10 0.10 86 1008.0
20260507022004 64 199 0.0 0.9 0.00 0.10 0.10 86 1008.0
20260507021506 65 169 0.0 1.7 0.00 0.10 0.10 84 1008.0
20260507021003 65 169 0.0 1.7 0.00 0.10 0.10 84 1008.0
20260507020504 65 221 0.0 1.7 0.00 0.10 0.10 83 1008.1
20260507020007 65 162 0.0 1.7 0.00 0.10 0.10 83 1008.2
20260507015504 66 197 0.9 2.6 0.00 0.10 0.10 83 1008.4
20260507015004 66 230 0.9 2.6 0.00 0.10 0.10 82 1008.5
20260507014516 66 173 0.9 4.3 0.00 0.10 0.10 82 1008.7
20260507014003 66 171 1.7 4.3 0.00 0.10 0.10 82 1008.8
20260507013503 66 182 1.7 3.5 0.00 0.10 0.10 82 1008.8
20260507013015 66 190 0.9 4.3 0.00 0.10 0.10 82 1008.8
20260507012504 66 197 1.7 4.3 0.00 0.10 0.10 82 1008.8
20260507012003 66 166 1.7 3.5 0.00 0.10 0.10 82 1008.8
20260507011513 66 221 0.9 2.6 0.00 0.10 0.10 82 1008.6
20260507011003 66 173 0.0 1.7 0.00 0.10 0.10 82 1008.3
20260507010503 66 196 0.9 2.6 0.00 0.10 0.10 82 1008.1
20260507010007 66 194 0.9 2.6 0.00 0.10 0.10 82 1008.5
20260507005502 66 234 0.0 1.7 0.00 0.10 0.10 82 1008.3
20260507005002 66 195 0.9 3.5 0.00 0.10 0.10 82 1008.2
20260507004506 66 186 0.9 3.5 0.00 0.10 0.10 82 1008.2
20260507004003 66 188 0.9 2.6 0.00 0.10 0.10 82 1008.2
20260507003503 66 193 0.9 2.6 0.00 0.10 0.10 82 1008.3
20260507003008 66 195 0.9 2.6 0.00 0.10 0.10 82 1008.2
20260507002502 66 186 0.9 3.5 0.00 0.10 0.10 82 1008.2
20260507002006 66 185 0.9 3.5 0.00 0.10 0.10 81 1008.5
20260507001505 66 174 1.7 5.2 0.00 0.10 0.10 81 1008.5
20260507001003 66 207 1.7 5.2 0.00 0.10 0.10 81 1008.3
20260507000506 66 183 2.6 5.2 0.00 0.10 0.10 82 1008.5
20260507000020 66 202 0.9 4.3 0.00 0.10 0.10 82 1008.1
20260506235504 66 219 1.7 3.5 0.00 0.10 0.10 82 1008.0
20260506235005 66 202 0.9 4.3 0.00 0.10 0.10 82 1007.9
20260506234508 66 223 1.7 4.3 0.00 0.10 0.10 81 1008.0
20260506234003 66 217 1.7 4.3 0.00 0.10 0.10 82 1008.0
20260506233503 66 188 1.7 3.5 0.00 0.10 0.10 81 1007.9
20260506233009 66 179 1.7 3.5 0.00 0.10 0.10 81 1007.9
20260506232502 66 234 0.9 7.0 0.00 0.10 0.10 81 1007.8
20260506232002 67 175 1.7 7.0 0.00 0.10 0.10 81 1007.7
20260506231508 67 194 1.7 6.1 0.00 0.10 0.10 81 1007.8
20260506231003 67 133 1.7 5.2 0.00 0.10 0.10 81 1007.9
20260506230504 67 221 0.9 5.2 0.00 0.10 0.10 80 1007.8
20260506230009 67 188 1.7 4.3 0.00 0.10 0.10 80 1007.8
20260506225504 67 219 0.9 6.1 0.00 0.10 0.10 80 1007.9
20260506225004 67 171 2.6 6.1 0.00 0.10 0.10 79 1007.9
20260506224509 67 200 1.7 6.1 0.00 0.10 0.10 80 1008.0
20260506224004 67 186 2.6 6.1 0.00 0.10 0.10 80 1007.9
20260506223503 68 209 2.6 6.1 0.00 0.10 0.10 79 1007.9
20260506223008 68 194 2.6 6.1 0.00 0.10 0.10 80 1007.9
20260506222503 68 153 1.7 5.2 0.00 0.10 0.10 80 1007.9
20260506222002 68 179 1.7 5.2 0.00 0.10 0.10 79 1007.9
20260506221510 68 182 1.7 5.2 0.00 0.10 0.10 78 1007.8
20260506221002 68 239 2.6 5.2 0.00 0.10 0.10 78 1007.8
20260506220503 68 221 2.6 7.0 0.00 0.10 0.10 78 1007.7
20260506220013 69 211 2.6 8.7 0.00 0.10 0.10 78 1007.8
20260506215502 69 229 3.5 8.7 0.00 0.10 0.10 77 1007.8
20260506215002 69 190 2.6 7.8 0.00 0.10 0.10 77 1007.8
20260506214512 69 219 2.6 8.7 0.00 0.10 0.10 77 1007.6
20260506214002 69 199 2.6 7.8 0.00 0.10 0.10 77 1007.7
20260506213506 69 222 3.5 7.8 0.00 0.10 0.10 78 1007.6
20260506213014 69 246 4.3 8.7 0.00 0.10 0.10 77 1007.5
20260506212506 69 236 3.5 8.7 0.00 0.10 0.10 77 1007.5
20260506212004 69 232 2.6 7.0 0.00 0.10 0.10 76 1007.5
20260506211511 69 151 4.3 7.8 0.00 0.10 0.10 76 1007.4
20260506211005 69 223 2.6 7.8 0.00 0.10 0.10 78 1007.5
20260506210501 69 211 4.3 7.8 0.00 0.10 0.10 78 1007.6
20260506210009 68 204 3.5 13.9 0.00 0.10 0.10 78 1007.4
20260506205507 68 218 5.2 13.9 0.00 0.10 0.10 77 1007.4
20260506205003 69 200 5.2 9.6 0.00 0.10 0.10 77 1007.5
20260506204511 68 169 4.3 11.3 0.00 0.10 0.10 78 1007.4
20260506204003 68 265 5.2 12.2 0.00 0.10 0.10 77 1007.3
20260506203502 68 213 6.1 13.0 0.00 0.10 0.10 77 1007.4
20260506203012 68 199 4.3 13.0 0.00 0.10 0.10 77 1007.4
20260506202503 69 206 5.2 12.2 0.00 0.10 0.10 77 1007.3
20260506202006 69 184 7.0 12.2 0.00 0.10 0.10 76 1007.3
20260506201514 69 205 4.3 13.0 0.00 0.10 0.10 76 1007.3
20260506201008 69 221 6.1 13.9 0.00 0.10 0.10 75 1007.2
20260506200503 69 202 5.2 13.9 0.00 0.10 0.10 75 1007.3
20260506200014 69 222 6.1 15.6 0.00 0.10 0.10 75 1007.4
20260506195506 69 297 7.0 16.5 0.00 0.10 0.10 76 1007.3
20260506195003 69 171 5.2 16.5 0.00 0.10 0.10 76 1007.3
20260506194515 69 254 4.3 13.0 0.00 0.10 0.10 76 1007.3
20260506194003 69 194 5.2 13.0 0.00 0.10 0.10 76 1007.5
20260506193503 69 201 5.2 14.8 0.00 0.10 0.10 77 1007.3
20260506193012 69 204 4.3 14.8 0.00 0.10 0.10 79 1007.5
20260506192504 69 197 6.1 13.9 0.00 0.10 0.10 78 1007.4
20260506192007 68 209 7.0 13.9 0.00 0.10 0.10 78 1007.6
20260506191517 68 204 5.2 13.9 0.00 0.10 0.10 80 1007.8
20260506191004 67 196 5.2 10.4 0.00 0.10 0.10 79 1007.9
20260506190504 67 160 5.2 10.4 0.00 0.10 0.10 80 1008.0
20260506190013 67 215 6.1 13.9 0.00 0.10 0.10 80 1008.1
20260506185508 66 227 6.1 13.9 0.00 0.10 0.10 80 1008.0
20260506185006 66 188 4.3 12.2 0.00 0.10 0.10 81 1008.0
20260506184519 66 226 5.2 13.0 0.00 0.10 0.10 80 1008.1
20260506184007 66 157 5.2 13.0 0.00 0.10 0.10 81 1008.1
20260506183507 66 174 7.0 13.0 0.00 0.10 0.10 80 1008.2
20260506183016 66 248 6.1 13.9 0.00 0.10 0.10 81 1008.2
20260506182507 66 190 5.2 13.9 0.00 0.10 0.10 80 1008.4
20260506182008 66 197 5.2 13.9 0.00 0.10 0.10 80 1008.3
20260506181516 66 178 4.3 13.9 0.00 0.10 0.10 81 1008.3
20260506181012 66 155 4.3 13.9 0.00 0.10 0.10 80 1008.3
20260506180506 66 188 7.8 15.6 0.00 0.10 0.10 80 1008.3
20260506180028 66 180 5.2 15.6 0.00 0.10 0.10 82 1008.4
20260506175504 65 177 6.1 18.2 0.00 0.10 0.10 81 1008.4
20260506175008 65 176 6.1 18.2 0.00 0.10 0.10 81 1008.4
20260506174517 65 214 9.6 14.8 0.00 0.10 0.10 81 1008.5
20260506174006 65 188 7.8 13.9 0.00 0.10 0.10 81 1008.5
20260506173505 65 294 6.1 12.2 0.00 0.10 0.10 82 1008.6
20260506173019 65 196 6.1 13.0 0.00 0.10 0.10 82 1008.4
20260506172504 64 147 7.0 17.4 0.00 0.10 0.10 82 1008.4
20260506172012 64 250 5.2 17.4 0.00 0.10 0.10 82 1008.6
20260506171534 64 173 6.1 13.9 0.00 0.10 0.10 81 1008.5
20260506171008 65 204 7.0 13.0 0.00 0.10 0.10 81 1008.6
20260506170504 65 212 6.1 14.8 0.01 0.10 0.10 82 1008.5
20260506170018 65 211 7.8 14.8 0.01 0.10 0.10 83 1008.8
20260506165512 65 178 4.3 13.0 0.01 0.10 0.10 82 1008.8
20260506165008 65 167 6.1 14.8 0.01 0.10 0.10 82 1008.8
20260506164521 65 156 5.2 13.0 0.01 0.10 0.10 84 1008.6
20260506164008 64 138 4.3 13.0 0.01 0.10 0.10 85 1008.5
20260506163504 63 134 5.2 14.8 0.01 0.10 0.10 85 1008.3
20260506163022 63 213 7.0 14.8 0.01 0.10 0.10 86 1008.5
20260506162508 63 182 3.5 12.2 0.04 0.10 0.10 87 1008.8
20260506162014 63 204 5.2 12.2 0.05 0.10 0.10 87 1008.9
20260506161536 63 204 4.3 8.7 0.06 0.10 0.10 87 1009.0
20260506161007 63 255 4.3 13.0 0.07 0.10 0.10 87 1009.1
20260506160508 63 200 3.5 13.0 0.07 0.09 0.09 87 1009.1
20260506160020 63 173 4.3 10.4 0.08 0.09 0.09 88 1008.9
20260506155511 63 198 4.3 10.4 0.08 0.09 0.09 89 1008.8
20260506155007 62 160 2.6 8.7 0.08 0.09 0.09 88 1009.0
20260506154520 62 217 4.3 9.6 0.08 0.09 0.09 88 1009.3
20260506154008 62 184 4.3 11.3 0.08 0.09 0.09 87 1009.6
20260506153508 62 196 5.2 12.2 0.09 0.09 0.09 87 1009.8
20260506153017 62 173 4.3 12.2 0.09 0.09 0.09 86 1009.7
20260506152510 62 192 5.2 9.6 0.06 0.06 0.06 85 1009.9
20260506152007 63 228 5.2 8.7 0.05 0.05 0.05 85 1010.0
20260506151519 63 198 2.6 8.7 0.04 0.04 0.04 84 1009.8
20260506151008 63 188 3.5 9.6 0.03 0.03 0.03 84 1009.7
20260506150507 63 215 3.5 9.6 0.02 0.02 0.02 81 1009.8
20260506150025 63 192 4.3 8.7 0.01 0.01 0.01 81 1009.7
20260506145505 64 217 5.2 8.7 0.01 0.01 0.01 81 1009.7
20260506145008 63 205 3.5 11.3 0.01 0.01 0.01 81 1009.8
20260506144521 63 161 4.3 11.3 0.01 0.01 0.01 80 1009.9
20260506144009 64 205 3.5 13.0 0.01 0.01 0.01 79 1009.8
20260506143509 64 207 3.5 13.0 0.00 0.00 0.00 78 1009.8
20260506143022 64 194 5.2 8.7 0.00 0.00 0.00 76 1009.8
20260506142508 65 256 3.5 13.0 0.00 0.00 0.00 75 1009.8
20260506142010 65 199 4.3 13.0 0.00 0.00 0.00 74 1009.8
20260506141519 66 216 2.6 12.2 0.00 0.00 0.00 73 1009.9
20260506141008 66 212 5.2 13.9 0.00 0.00 0.00 71 1010.1
20260506140507 66 161 6.1 16.5 0.00 0.00 0.00 70 1010.1
20260506140021 66 241 7.0 16.5 0.00 0.00 0.00 69 1010.1
20260506135506 66 200 5.2 13.9 0.00 0.00 0.00 69 1010.0
20260506135011 66 207 7.0 13.9 0.00 0.00 0.00 70 1009.9
20260506134546 66 184 7.0 11.3 0.00 0.00 0.00 69 1009.9
20260506134010 66 194 4.3 11.3 0.00 0.00 0.00 69 1009.9
20260506133508 66 278 5.2 13.0 0.00 0.00 0.00 68 1009.7
20260506133022 67 202 7.0 14.8 0.00 0.00 0.00 67 1009.8
20260506132510 67 178 7.0 14.8 0.00 0.00 0.00 66 1009.9
20260506132008 68 171 6.1 12.2 0.00 0.00 0.00 66 1009.6
20260506131527 67 211 5.2 13.0 0.00 0.00 0.00 67 1009.6
20260506131007 67 227 5.2 17.4 0.00 0.00 0.00 67 1009.4
20260506130510 67 155 5.2 17.4 0.00 0.00 0.00 67 1009.6
20260506130025 67 184 6.1 17.4 0.00 0.00 0.00 67 1009.5
20260506125509 66 202 5.2 17.4 0.00 0.00 0.00 68 1009.6
20260506125008 66 211 7.0 19.1 0.00 0.00 0.00 68 1009.7
20260506124523 66 203 7.8 19.1 0.00 0.00 0.00 68 1009.7
20260506124009 66 148 6.1 14.8 0.00 0.00 0.00 67 1009.8
20260506123509 66 225 6.1 19.1 0.00 0.00 0.00 68 1009.9
20260506123025 66 202 7.0 19.1 0.00 0.00 0.00 68 1009.8
20260506122508 66 205 6.1 17.4 0.00 0.00 0.00 67 1009.8
20260506122008 66 214 7.0 17.4 0.00 0.00 0.00 67 1009.8
20260506121523 67 229 4.3 14.8 0.00 0.00 0.00 68 1009.7
20260506121009 67 248 7.0 14.8 0.00 0.00 0.00 67 1009.7
20260506120507 66 198 4.3 16.5 0.00 0.00 0.00 68 1009.8
20260506120022 66 184 5.2 16.5 0.00 0.00 0.00 68 1009.7
20260506115509 66 209 7.0 17.4 0.00 0.00 0.00 68 1009.6
20260506115009 66 232 4.3 20.0 0.00 0.00 0.00 69 1009.5
20260506114533 66 180 7.8 20.0 0.00 0.00 0.00 69 1009.7
20260506114009 66 176 5.2 14.8 0.00 0.00 0.00 69 1009.7
20260506113509 66 188 5.2 14.8 0.00 0.00 0.00 70 1009.6
20260506113018 66 172 7.8 16.5 0.00 0.00 0.00 70 1009.4
20260506112509 66 190 6.1 16.5 0.00 0.00 0.00 70 1009.4
20260506112004 66 221 3.5 11.3 0.00 0.00 0.00 71 1009.3
20260506111519 66 198 5.2 15.6 0.00 0.00 0.00 71 1009.4
20260506111006 66 213 7.0 15.6 0.00 0.00 0.00 71 1009.3
20260506110504 65 173 6.1 13.0 0.00 0.00 0.00 72 1009.2
20260506110019 65 227 5.2 13.0 0.00 0.00 0.00 72 1009.2
20260506105504 65 256 5.2 15.6 0.00 0.00 0.00 72 1009.3
20260506105003 65 208 5.2 15.6 0.00 0.00 0.00 72 1009.3
20260506104509 65 241 6.1 13.0 0.00 0.00 0.00 72 1009.2
20260506104005 65 181 6.1 13.0 0.00 0.00 0.00 72 1009.2
20260506103508 65 188 7.0 13.0 0.00 0.00 0.00 73 1009.2
20260506103022 65 167 5.2 13.9 0.00 0.00 0.00 73 1009.2
20260506102508 65 203 5.2 13.9 0.00 0.00 0.00 73 1009.3
20260506102010 65 177 5.2 15.6 0.00 0.00 0.00 73 1009.2
20260506101518 65 193 7.0 15.6 0.00 0.00 0.00 72 1009.3
20260506101006 65 190 6.1 13.9 0.00 0.00 0.00 73 1009.3
20260506100505 65 189 4.3 17.4 0.00 0.00 0.00 72 1009.4
20260506100029 65 194 6.1 17.4 0.00 0.00 0.00 72 1009.4
20260506095507 65 223 6.1 12.2 0.00 0.00 0.00 73 1009.4
20260506095006 65 210 5.2 11.3 0.00 0.00 0.00 72 1009.3
20260506094514 65 171 6.1 13.9 0.00 0.00 0.00 73 1009.3
20260506094003 65 180 7.8 13.9 0.00 0.00 0.00 73 1009.4
20260506093504 65 172 5.2 13.0 0.00 0.00 0.00 73 1009.6
20260506093013 65 190 6.1 15.6 0.00 0.00 0.00 73 1009.4
20260506092507 65 164 7.8 15.6 0.00 0.00 0.00 73 1009.4
20260506092009 65 191 5.2 14.8 0.00 0.00 0.00 73 1009.4
20260506091520 65 214 5.2 14.8 0.00 0.00 0.00 73 1009.4
20260506091007 65 199 5.2 10.4 0.00 0.00 0.00 73 1009.5
20260506090507 65 212 5.2 11.3 0.00 0.00 0.00 72 1009.5
20260506090023 65 196 5.2 15.6 0.00 0.00 0.00 72 1009.5
20260506085506 65 180 7.0 15.6 0.00 0.00 0.00 72 1009.5
20260506085007 65 201 4.3 13.0 0.00 0.00 0.00 72 1009.5
20260506084525 65 183 7.8 13.0 0.00 0.00 0.00 72 1009.5
20260506084008 65 200 5.2 13.9 0.00 0.00 0.00 72 1009.5
20260506083507 65 158 4.3 13.9 0.00 0.00 0.00 72 1009.4
20260506083013 65 248 6.1 10.4 0.00 0.00 0.00 73 1009.3
20260506082506 65 229 4.3 10.4 0.00 0.00 0.00 72 1009.3
20260506082003 65 185 5.2 12.2 0.00 0.00 0.00 72 1009.4
20260506081522 66 182 4.3 12.2 0.00 0.00 0.00 72 1009.5
20260506081009 66 188 6.1 11.3 0.00 0.00 0.00 71 1009.5
20260506080508 66 185 7.0 13.0 0.00 0.00 0.00 71 1009.5
20260506073515 67 179 6.1 17.4 0.00 0.00 0.00 70 1009.7
20260506073024 67 195 7.8 17.4 0.00 0.00 0.00 70 1009.7
20260506072505 67 192 5.2 13.9 0.00 0.00 0.00 69 1009.7
20260506072007 67 186 7.0 13.0 0.00 0.00 0.00 69 1009.7
20260506071514 67 210 5.2 13.9 0.00 0.00 0.00 69 1009.7
20260506071008 67 211 5.2 13.9 0.00 0.00 0.00 69 1009.7
20260506070504 67 167 4.3 11.3 0.00 0.00 0.00 69 1009.7
20260506062507 68 211 7.0 16.5 0.00 0.00 0.00 67 1009.8
20260506062012 68 196 7.0 16.5 0.00 0.00 0.00 67 1009.7
20260506061533 68 201 5.2 17.4 0.00 0.00 0.00 67 1009.8